TimeCST,TemperatureF,Dew PointF,Humidity,Sea Level PressureIn,VisibilityMPH,Wind Direction,Wind SpeedMPH,Gust SpeedMPH,PrecipitationIn,Events,Conditions,WindDirDegrees,DateUTC
12:15 AM,28.4,17.6,64,29.98,10.0,NW,23.0,29.9,N/A,,Clear,310,2012-12-04 06:15:00
12:35 AM,26.6,17.6,69,29.99,10.0,NW,17.3,-,N/A,,Clear,310,2012-12-04 06:35:00
12:55 AM,26.6,15.8,64,30.01,10.0,WNW,9.2,-,N/A,,Clear,300,2012-12-04 06:55:00
1:15 AM,26.6,15.8,64,30.01,10.0,WNW,12.7,-,N/A,,Clear,290,2012-12-04 07:15:00
1:35 AM,23.0,17.6,80,30.00,10.0,WNW,11.5,-,N/A,,Clear,290,2012-12-04 07:35:00
1:55 AM,23.0,15.8,74,30.01,10.0,WNW,12.7,-,N/A,,Clear,300,2012-12-04 07:55:00
2:15 AM,23.0,14.0,68,30.02,10.0,NW,12.7,-,N/A,,Clear,310,2012-12-04 08:15:00
2:55 AM,21.2,14.0,74,30.05,10.0,WNW,12.7,-,N/A,,Clear,300,2012-12-04 08:55:00
3:15 AM,21.2,14.0,74,30.05,10.0,NW,12.7,-,N/A,,Clear,310,2012-12-04 09:15:00
3:35 AM,21.2,14.0,74,30.07,10.0,NW,6.9,-,N/A,,Clear,320,2012-12-04 09:35:00
3:55 AM,21.2,14.0,74,30.07,10.0,NW,11.5,-,N/A,,Clear,310,2012-12-04 09:55:00
4:15 AM,19.4,14.0,80,30.08,10.0,NW,10.4,-,N/A,,Clear,310,2012-12-04 10:15:00
4:35 AM,19.4,12.2,74,30.08,10.0,NW,11.5,-,N/A,,Clear,320,2012-12-04 10:35:00
4:55 AM,19.4,12.2,74,30.09,10.0,NW,11.5,-,N/A,,Clear,320,2012-12-04 10:55:00
5:15 AM,19.4,12.2,74,30.10,10.0,NW,9.2,-,N/A,,Clear,320,2012-12-04 11:15:00
5:35 AM,17.6,12.2,79,30.10,10.0,NW,9.2,-,N/A,,Clear,310,2012-12-04 11:35:00
5:55 AM,19.4,12.2,74,30.11,10.0,NW,10.4,-,N/A,,Clear,310,2012-12-04 11:55:00
6:15 AM,17.6,12.2,79,30.13,10.0,NW,9.2,-,N/A,,Clear,320,2012-12-04 12:15:00
6:35 AM,17.6,12.2,79,30.13,10.0,NW,12.7,-,N/A,,Clear,320,2012-12-04 12:35:00
6:55 AM,17.6,12.2,79,30.16,10.0,NW,9.2,-,N/A,,Clear,320,2012-12-04 12:55:00
7:15 AM,17.6,10.4,73,30.16,10.0,NW,12.7,-,N/A,,Clear,310,2012-12-04 13:15:00
7:35 AM,17.6,10.4,73,30.18,10.0,NW,11.5,-,N/A,,Clear,320,2012-12-04 13:35:00
7:55 AM,15.8,10.4,79,30.19,10.0,NW,8.1,-,N/A,,Clear,320,2012-12-04 13:55:00
8:15 AM,15.8,10.4,79,30.20,10.0,NW,11.5,-,N/A,,Clear,320,2012-12-04 14:15:00
8:35 AM,17.6,10.4,73,30.22,10.0,NW,11.5,-,N/A,,Scattered Clouds,320,2012-12-04 14:35:00
8:55 AM,17.6,10.4,73,30.23,10.0,NW,10.4,-,N/A,,Scattered Clouds,320,2012-12-04 14:55:00
9:15 AM,17.6,10.4,73,30.24,10.0,NNW,15.0,-,N/A,,Clear,330,2012-12-04 15:15:00
9:35 AM,19.4,10.4,68,30.25,10.0,NW,13.8,20.7,N/A,,Clear,320,2012-12-04 15:35:00
9:55 AM,19.4,10.4,68,30.26,10.0,NW,15.0,-,N/A,,Clear,320,2012-12-04 15:55:00
10:15 AM,21.2,10.4,63,30.26,10.0,NNW,13.8,20.7,N/A,,Clear,340,2012-12-04 16:15:00
10:35 AM,21.2,10.4,63,30.27,10.0,NNW,15.0,-,N/A,,Clear,340,2012-12-04 16:35:00
10:55 AM,21.2,10.4,63,30.28,10.0,NNW,15.0,20.7,N/A,,Clear,330,2012-12-04 16:55:00
11:15 AM,21.2,10.4,63,30.28,10.0,NNW,15.0,20.7,N/A,,Clear,330,2012-12-04 17:15:00
11:35 AM,23.0,10.4,59,30.28,10.0,North,15.0,20.7,N/A,,Clear,350,2012-12-04 17:35:00
11:55 AM,23.0,12.2,63,30.29,10.0,NNW,13.8,-,N/A,,Clear,340,2012-12-04 17:55:00
12:15 PM,23.0,12.2,63,30.29,10.0,NNW,13.8,-,N/A,,Clear,340,2012-12-04 18:15:00
12:35 PM,24.8,12.2,59,30.28,10.0,NNW,12.7,-,N/A,,Clear,340,2012-12-04 18:35:00
12:55 PM,24.8,10.4,54,30.28,10.0,North,12.7,-,N/A,,Clear,360,2012-12-04 18:55:00
1:15 PM,26.6,12.2,55,30.28,10.0,North,12.7,-,N/A,,Clear,350,2012-12-04 19:15:00
1:35 PM,26.6,12.2,55,30.29,10.0,NNW,10.4,-,N/A,,Clear,330,2012-12-04 19:35:00
1:55 PM,26.6,12.2,55,30.29,10.0,NNW,9.2,-,N/A,,Clear,330,2012-12-04 19:55:00
2:15 PM,26.6,10.4,51,30.29,10.0,North,11.5,-,N/A,,Clear,360,2012-12-04 20:15:00
2:35 PM,26.6,10.4,51,30.31,10.0,NNW,10.4,-,N/A,,Clear,330,2012-12-04 20:35:00
2:55 PM,26.6,12.2,55,30.31,10.0,NNW,9.2,-,N/A,,Clear,340,2012-12-04 20:55:00
3:15 PM,26.6,10.4,51,30.31,10.0,NNW,8.1,-,N/A,,Clear,340,2012-12-04 21:15:00
3:35 PM,26.6,10.4,51,30.31,10.0,NNW,8.1,-,N/A,,Clear,340,2012-12-04 21:35:00
3:55 PM,24.8,10.4,54,30.32,10.0,North,9.2,-,N/A,,Clear,10,2012-12-04 21:55:00
4:15 PM,23.0,10.4,59,30.32,10.0,NNW,9.2,-,N/A,,Clear,340,2012-12-04 22:15:00
4:35 PM,23.0,10.4,59,30.33,10.0,North,6.9,-,N/A,,Clear,350,2012-12-04 22:35:00
4:55 PM,21.2,10.4,63,30.32,10.0,North,6.9,-,N/A,,Clear,10,2012-12-04 22:55:00
5:15 PM,21.2,10.4,63,30.33,10.0,NNE,5.8,-,N/A,,Clear,20,2012-12-04 23:15:00
5:35 PM,19.4,10.4,68,30.32,10.0,NNE,6.9,-,N/A,,Clear,20,2012-12-04 23:35:00
5:55 PM,19.4,10.4,68,30.33,10.0,NNE,4.6,-,N/A,,Clear,20,2012-12-04 23:55:00
6:15 PM,19.4,10.4,68,30.33,10.0,NE,4.6,-,N/A,,Clear,40,2012-12-05 00:15:00
6:35 PM,19.4,10.4,68,30.33,10.0,Calm,Calm,-,N/A,,Clear,0,2012-12-05 00:35:00
6:55 PM,17.6,10.4,73,30.33,10.0,NNE,4.6,-,N/A,,Clear,20,2012-12-05 00:55:00
7:15 PM,17.6,10.4,73,30.34,10.0,NNE,3.5,-,N/A,,Clear,30,2012-12-05 01:15:00
7:35 PM,17.6,10.4,73,30.34,10.0,NE,4.6,-,N/A,,Clear,50,2012-12-05 01:35:00
7:55 PM,17.6,10.4,73,30.34,10.0,East,3.5,-,N/A,,Clear,80,2012-12-05 01:55:00
8:15 PM,17.6,10.4,73,30.36,10.0,Calm,Calm,-,N/A,,Clear,0,2012-12-05 02:15:00
8:35 PM,17.6,10.4,73,30.36,10.0,Calm,Calm,-,N/A,,Clear,0,2012-12-05 02:35:00
8:55 PM,17.6,10.4,73,30.38,10.0,Calm,Calm,-,N/A,,Clear,0,2012-12-05 02:55:00
9:15 PM,17.6,10.4,73,30.37,10.0,Calm,Calm,-,N/A,,Clear,0,2012-12-05 03:15:00
9:35 PM,15.8,10.4,79,30.36,10.0,ENE,5.8,-,N/A,,Clear,70,2012-12-05 03:35:00
9:55 PM,17.6,10.4,73,30.37,10.0,ENE,3.5,-,N/A,,Clear,60,2012-12-05 03:55:00
10:15 PM,15.8,10.4,79,30.37,10.0,East,4.6,-,N/A,,Clear,90,2012-12-05 04:15:00
10:35 PM,15.8,10.4,79,30.36,10.0,East,4.6,-,N/A,,Clear,80,2012-12-05 04:35:00
10:55 PM,14.0,10.4,86,30.36,10.0,East,4.6,-,N/A,,Clear,100,2012-12-05 04:55:00
11:15 PM,15.8,10.4,79,30.36,10.0,ESE,5.8,-,N/A,,Clear,110,2012-12-05 05:15:00
11:35 PM,15.8,10.4,79,30.35,10.0,ESE,5.8,-,N/A,,Clear,110,2012-12-05 05:35:00
11:55 PM,15.8,10.4,79,30.35,10.0,ESE,5.8,-,N/A,,Clear,120,2012-12-05 05:55:00